Flag for U.S.A. Weather past 2 weeks in El Monte, California, U.S.A.

Now
56 °F

Clear.


Feels Like: 56 °F
Forecast: 54 / 78 °F
Wind: No wind

Location: Fullerton Municipal Airport

Current Time: Apr 19, 2015 at 5:56:59 AM

Latest Report: Apr 19, 2015 at 4:53 AM


Visibility: 10 mi

Pressure: 29.93 "Hg

Humidity: 77%

Dew point: 49 °F

Location of El MonteLocation

Historic Weather in El Monte — Graph

°F

El Monte temperature yesterday

Maximum temperature yesterday: 79 °F (at 1:53 PM)
Minimum temperature yesterday: 55 °F (at 4:53 AM)
Average temperature yesterday: 67 °F

Past Weeks' High & Low Weather Summary

 TemperatureHumidityPressure
High85 °F (Apr 15, 2:53 PM)90% (Apr 8, 5:53 AM)30.09 "Hg (Apr 8, 5:53 AM)
Low49 °F (Apr 8, 5:53 AM)5% (Apr 16, 11:53 AM)29.83 "Hg (Apr 5, 5:53 PM)
Average65 °F50%29.96 "Hg
* Reported Apr 4 3:53 AM — Apr 19 3:53 AM, El Monte, Weather by CustomWeather, © 2015

Note: Actual official high and low records may vary slightly from our data, if they occured in-between our weather recording intervals... More about our weather records

Advertising

El Monte weather history for previous 24 hours

 ConditionsComfort  
Time TempWeatherWind HumidityBarometerVisibility
3:53 AM
Sun, Apr 19
56 °FClear.No wind75%29.93 "Hg10 mi
2:53 AM58 °FClear.No wind70%29.93 "Hg10 mi
1:53 AM58 °FClear.No wind72%29.95 "Hg10 mi
12:53 AM60 °FClear.No wind67%29.96 "Hg10 mi
11:53 PM
Sat, Apr 18
62 °FClear.No wind73%29.96 "Hg10 mi
10:53 PM63 °FClear.No wind73%29.96 "Hg10 mi
9:53 PM64 °FClear.3 mph68%29.96 "Hg10 mi
8:53 PM66 °FClear.6 mph61%29.94 "Hg10 mi
7:53 PM70 °FSunny.5 mph41%29.91 "Hg10 mi
6:53 PM74 °FSunny.No wind38%29.90 "Hg10 mi
5:53 PM75 °FSunny.9 mph39%29.90 "Hg10 mi
4:53 PM77 °FSunny.8 mph39%29.90 "Hg10 mi
3:53 PM78 °FSunny.9 mph25%29.92 "Hg10 mi
2:53 PM79 °FSunny.7 mph23%29.93 "Hg10 mi
1:53 PM79 °FSunny.9 mph23%29.95 "Hg10 mi
12:53 PM78 °FSunny.9 mph25%29.97 "Hg10 mi
11:53 AM77 °FSunny.9 mph30%29.99 "Hg10 mi
10:53 AM74 °FSunny.5 mph26%30.01 "Hg10 mi
9:53 AM70 °FSunny.5 mph37%30.00 "Hg10 mi
8:53 AM66 °FSunny.No wind39%30.01 "Hg10 mi
7:53 AM62 °FSunny.3 mph37%30.02 "Hg10 mi
6:53 AM57 °FClear.3 mph44%30.00 "Hg10 mi
5:53 AM56 °FClear.3 mph47%29.99 "Hg10 mi
Weather by CustomWeather, © 2015

See weather overviewHow to use our weather pages